Location: Haliburton Scout Reserve
(45.0900°N, 78.3200°W)
Time: 18:48:52
(UTC-05:00)

Courier 1B - Pass Details

Date: 05 December 2023
Orbit: 962 x 1209 km, 28.3° (Epoch: 23 February)

Event Time Altitude Azimuth Distance (km) Brightness Sun altitude
Rises 11:20:58 0° 240° (WSW) 3,709 10.8 21.8°
Reaches altitude 10° 11:24:36 10° 221° (SW) 2,726 10.5 21.9°
Maximum altitude 11:28:43 17° 182° (S) 2,203 11.7 22.0°
Drops below altitude 10° 11:32:46 10° 142° (SE) 2,685 11.0 22.1°
Sets 11:36:19 0° 124° (SE) 3,631 11.1 22.2°
